| time (UTC) | temp F | wind direction | speed knots | gust knots | rain 1hr in | rain 24hr in | rain mn in | humidity % | barometer mb |
| 20260508111847 | 39 | 165 | 0.0 | 0.0 | 0.01 | 0.04 | 0.04 | 94 | 1009.4 |
| 20260508111407 | 39 | 165 | 0.0 | 0.0 | 0.03 | 0.04 | 0.04 | 93 | 1009.7 |
| 20260508110844 | 39 | 165 | 0.0 | 1.7 | 0.03 | 0.04 | 0.04 | 93 | 1009.7 |
| 20260508110340 | 39 | 165 | 0.0 | 1.7 | 0.03 | 0.04 | 0.04 | 93 | 1009.6 |
| 20260508105917 | 39 | 71 | 0.0 | 1.7 | 0.03 | 0.04 | 0.04 | 93 | 1009.6 |
| 20260508105351 | 38 | 71 | 0.0 | 0.0 | 0.03 | 0.04 | 0.04 | 93 | 1009.6 |
| 20260508104840 | 38 | 71 | 0.0 | 0.0 | 0.03 | 0.04 | 0.04 | 93 | 1009.6 |
| 20260508104342 | 38 | 71 | 0.0 | 0.0 | 0.03 | 0.04 | 0.04 | 92 | 1009.7 |
| 20260508103841 | 38 | 71 | 0.0 | 0.0 | 0.03 | 0.04 | 0.04 | 92 | 1009.5 |
| 20260508103342 | 39 | 71 | 0.0 | 0.0 | 0.03 | 0.04 | 0.04 | 93 | 1009.4 |
| 20260508102846 | 39 | 71 | 0.0 | 0.0 | 0.02 | 0.03 | 0.03 | 93 | 1009.4 |
| 20260508102335 | 39 | 71 | 0.0 | 0.0 | 0.02 | 0.03 | 0.03 | 93 | 1009.2 |
| 20260508101840 | 39 | 71 | 0.0 | 0.0 | 0.01 | 0.02 | 0.02 | 93 | 1009.2 |
| 20260508101359 | 39 | 71 | 0.0 | 0.0 | 0.00 | 0.01 | 0.01 | 93 | 1009.2 |
| 20260508100834 | 39 | 71 | 0.0 | 0.0 | 0.00 | 0.01 | 0.01 | 93 | 1009.2 |
| 20260508100350 | 39 | 71 | 0.0 | 0.0 | 0.00 | 0.01 | 0.01 | 93 | 1009.2 |
| 20260508095836 | 38 | 71 | 0.0 | 0.0 | 0.00 | 0.01 | 0.01 | 93 | 1008.8 |
| 20260508095347 | 38 | 71 | 0.0 | 0.0 | 0.00 | 0.01 | 0.01 | 93 | 1008.6 |
| 20260508094858 | 38 | 71 | 0.0 | 0.0 | 0.00 | 0.01 | 0.01 | 92 | 1008.7 |
| 20260508094351 | 38 | 71 | 0.0 | 0.0 | 0.00 | 0.01 | 0.01 | 92 | 1008.7 |
| 20260508093847 | 38 | 71 | 0.0 | 0.0 | 0.00 | 0.01 | 0.01 | 92 | 1008.9 |
| 20260508093333 | 39 | 71 | 0.0 | 0.0 | 0.00 | 0.01 | 0.01 | 92 | 1009.0 |
| 20260508092847 | 39 | 71 | 0.0 | 0.0 | 0.00 | 0.01 | 0.01 | 92 | 1008.9 |
| 20260508092408 | 39 | 71 | 0.0 | 0.0 | 0.00 | 0.01 | 0.01 | 92 | 1009.2 |
| 20260508091909 | 39 | 71 | 0.0 | 0.0 | 0.00 | 0.01 | 0.01 | 92 | 1009.5 |
| 20260508091341 | 39 | 71 | 0.0 | 0.0 | 0.00 | 0.01 | 0.01 | 92 | 1009.3 |
| 20260508090836 | 38 | 71 | 0.0 | 0.0 | 0.00 | 0.01 | 0.01 | 92 | 1009.1 |
| 20260508090348 | 38 | 71 | 0.0 | 0.0 | 0.00 | 0.01 | 0.01 | 92 | 1009.2 |
| 20260508085841 | 38 | 71 | 0.0 | 0.0 | 0.00 | 0.01 | 0.01 | 92 | 1009.2 |
| 20260508085343 | 38 | 71 | 0.0 | 0.0 | 0.00 | 0.01 | 0.01 | 93 | 1009.2 |
| 20260508084843 | 38 | 71 | 0.0 | 0.0 | 0.00 | 0.01 | 0.01 | 93 | 1009.5 |
| 20260508084342 | 38 | 71 | 0.0 | 0.0 | 0.01 | 0.01 | 0.01 | 93 | 1009.6 |
| 20260508083838 | 38 | 71 | 0.0 | 0.0 | 0.01 | 0.01 | 0.01 | 93 | 1009.7 |
| 20260508083341 | 38 | 71 | 0.0 | 0.0 | 0.01 | 0.01 | 0.01 | 93 | 1009.5 |
| 20260508082834 | 38 | 71 | 0.0 | 0.0 | 0.01 | 0.01 | 0.01 | 93 | 1009.5 |
| 20260508082354 | 38 | 71 | 0.0 | 0.0 | 0.01 | 0.01 | 0.01 | 93 | 1009.5 |
| 20260508081835 | 38 | 71 | 0.0 | 0.0 | 0.01 | 0.01 | 0.01 | 92 | 1009.7 |
| 20260508081354 | 38 | 71 | 0.0 | 0.0 | 0.01 | 0.01 | 0.01 | 92 | 1009.7 |
| 20260508080852 | 39 | 71 | 0.0 | 0.0 | 0.01 | 0.01 | 0.01 | 92 | 1009.5 |
| 20260508080334 | 39 | 71 | 0.0 | 0.0 | 0.01 | 0.01 | 0.01 | 92 | 1009.4 |
| 20260508075843 | 39 | 71 | 0.0 | 1.7 | 0.01 | 0.01 | 0.01 | 93 | 1009.5 |
| 20260508075402 | 39 | 71 | 0.0 | 1.7 | 0.01 | 0.01 | 0.01 | 93 | 1009.8 |
| 20260508074835 | 39 | 71 | 0.0 | 1.7 | 0.00 | 0.00 | 0.00 | 93 | 1009.9 |
| 20260508074338 | 39 | 71 | 0.0 | 2.6 | 0.00 | 0.00 | 0.00 | 93 | 1009.9 |
| 20260508073836 | 39 | 71 | 0.9 | 3.5 | 0.00 | 0.00 | 0.00 | 93 | 1009.8 |
| 20260508073400 | 39 | 249 | 0.9 | 4.3 | 0.00 | 0.00 | 0.00 | 93 | 1010.1 |
| 20260508072835 | 39 | 226 | 1.7 | 4.3 | 0.00 | 0.00 | 0.00 | 93 | 1009.8 |
| 20260508072352 | 39 | 231 | 0.0 | 2.6 | 0.00 | 0.00 | 0.00 | 94 | 1009.8 |
| 20260508071911 | 39 | 225 | 0.9 | 1.7 | 0.00 | 0.00 | 0.00 | 94 | 1009.7 |
| 20260508071410 | 39 | 225 | 0.0 | 1.7 | 0.00 | 0.00 | 0.00 | 94 | 1009.7 |
| 20260508070845 | 39 | 225 | 0.0 | 1.7 | 0.00 | 0.00 | 0.00 | 94 | 1009.5 |
| 20260508070344 | 39 | 225 | 0.0 | 1.7 | 0.00 | 0.00 | 0.00 | 94 | 1009.6 |
| 20260508065847 | 39 | 225 | 0.9 | 1.7 | 0.00 | 0.00 | 0.00 | 94 | 1009.5 |
| 20260508065415 | 39 | 225 | 0.9 | 2.6 | 0.00 | 0.00 | 0.00 | 94 | 1009.7 |
| 20260508064852 | 39 | 225 | 0.9 | 2.6 | 0.00 | 0.00 | 0.00 | 94 | 1009.7 |
| 20260508064349 | 39 | 225 | 0.0 | 1.7 | 0.00 | 0.00 | 0.00 | 94 | 1009.7 |
| 20260508063839 | 39 | 225 | 0.0 | 1.7 | 0.00 | 0.00 | 0.00 | 94 | 1009.8 |
| 20260508063345 | 39 | 227 | 0.9 | 1.7 | 0.00 | 0.00 | 0.00 | 94 | 1009.8 |
| 20260508062846 | 39 | 227 | 0.0 | 1.7 | 0.00 | 0.00 | 0.00 | 94 | 1009.8 |
| 20260508062347 | 38 | 227 | 0.0 | 2.6 | 0.00 | 0.00 | 0.00 | 94 | 1009.8 |
| 20260508061843 | 39 | 227 | 0.9 | 2.6 | 0.00 | 0.00 | 0.00 | 94 | 1009.9 |
| 20260508061340 | 39 | 209 | 0.9 | 2.6 | 0.00 | 0.00 | 0.00 | 94 | 1009.9 |
| 20260508060855 | 39 | 209 | 1.7 | 2.6 | 0.00 | 0.00 | 0.00 | 94 | 1009.9 |
| 20260508060348 | 39 | 209 | 0.0 | 1.7 | 0.00 | 0.00 | 0.00 | 94 | 1009.9 |
| 20260508055834 | 39 | 209 | 0.0 | 2.6 | 0.00 | 0.00 | 0.00 | 94 | 1009.9 |
| 20260508055354 | 39 | 208 | 0.9 | 2.6 | 0.00 | 0.00 | 0.00 | 94 | 1010.0 |
| 20260508054846 | 39 | 250 | 1.7 | 2.6 | 0.00 | 0.00 | 0.00 | 94 | 1010.0 |
| 20260508054416 | 39 | 225 | 1.7 | 2.6 | 0.00 | 0.00 | 0.00 | 94 | 1010.1 |
| 20260508053909 | 39 | 225 | 0.9 | 2.6 | 0.00 | 0.00 | 0.00 | 94 | 1010.1 |
| 20260508053348 | 39 | 225 | 0.9 | 1.7 | 0.00 | 0.00 | 0.00 | 94 | 1010.1 |
| 20260508052852 | 39 | 225 | 0.0 | 0.9 | 0.00 | 0.00 | 0.00 | 94 | 1010.1 |
| 20260508052404 | 39 | 225 | 0.0 | 3.5 | 0.00 | 0.00 | 0.00 | 94 | 1010.0 |
| 20260508051845 | 39 | 224 | 1.7 | 4.3 | 0.00 | 0.00 | 0.00 | 94 | 1010.3 |
| 20260508051346 | 39 | 254 | 1.7 | 4.3 | 0.00 | 0.00 | 0.00 | 94 | 1010.3 |
| 20260508050848 | 38 | 236 | 2.6 | 4.3 | 0.00 | 0.00 | 0.00 | 94 | 1010.3 |
| 20260508045842 | 38 | 231 | 0.9 | 4.3 | 0.00 | 0.00 | 0.00 | 94 | 1010.2 |
| 20260508045337 | 38 | 234 | 1.7 | 3.5 | 0.00 | 0.00 | 0.00 | 94 | 1010.3 |
| 20260508044838 | 38 | 225 | 0.9 | 4.3 | 0.00 | 0.00 | 0.00 | 94 | 1010.3 |
| 20260508044357 | 37 | 261 | 1.7 | 2.6 | 0.00 | 0.00 | 0.00 | 94 | 1010.4 |
| 20260508043918 | 37 | 242 | 1.7 | 4.3 | 0.00 | 0.00 | 0.00 | 93 | 1010.2 |
| 20260508043355 | 37 | 221 | 1.7 | 4.3 | 0.00 | 0.00 | 0.00 | 93 | 1010.3 |
| 20260508042914 | 37 | 219 | 0.0 | 0.0 | 0.00 | 0.00 | 0.00 | 93 | 1010.2 |
| 20260508042340 | 38 | 219 | 0.0 | 0.0 | 0.00 | 0.00 | 0.00 | 93 | 1010.2 |
| 20260508041854 | 37 | 219 | 0.0 | 0.0 | 0.00 | 0.00 | 0.00 | 93 | 1010.2 |
| 20260508041404 | 38 | 219 | 0.0 | 0.0 | 0.00 | 0.00 | 0.00 | 93 | 1010.2 |
| 20260508040843 | 38 | 219 | 0.0 | 0.0 | 0.00 | 0.00 | 0.00 | 93 | 1010.1 |
| 20260508040337 | 38 | 219 | 0.0 | 0.0 | 0.00 | 0.00 | 0.00 | 93 | 1010.1 |
| 20260508035906 | 38 | 219 | 0.0 | 0.0 | 0.00 | 0.00 | 0.00 | 92 | 1010.0 |
| 20260508035347 | 38 | 219 | 0.0 | 0.0 | 0.00 | 0.00 | 0.00 | 92 | 1010.0 |
| 20260508034901 | 38 | 219 | 0.0 | 0.0 | 0.00 | 0.00 | 0.00 | 92 | 1010.1 |
| 20260508034336 | 38 | 219 | 0.0 | 0.0 | 0.00 | 0.00 | 0.00 | 92 | 1010.0 |
| 20260508033838 | 38 | 219 | 0.0 | 0.0 | 0.00 | 0.00 | 0.00 | 92 | 1010.1 |
| 20260508033342 | 38 | 219 | 0.0 | 0.0 | 0.00 | 0.00 | 0.00 | 92 | 1010.1 |
| 20260508032842 | 38 | 219 | 0.0 | 0.0 | 0.00 | 0.00 | 0.00 | 92 | 1010.1 |
| 20260508032337 | 38 | 219 | 0.0 | 0.0 | 0.00 | 0.00 | 0.00 | 91 | 1010.1 |
| 20260508031911 | 39 | 219 | 0.0 | 0.0 | 0.00 | 0.00 | 0.00 | 91 | 1010.0 |
| 20260508031357 | 39 | 219 | 0.0 | 0.0 | 0.00 | 0.00 | 0.00 | 91 | 1010.0 |
| 20260508030844 | 39 | 219 | 0.0 | 0.0 | 0.00 | 0.00 | 0.00 | 90 | 1010.0 |
| 20260508030336 | 39 | 219 | 0.0 | 0.0 | 0.00 | 0.00 | 0.00 | 90 | 1010.0 |
| 20260508025903 | 39 | 219 | 0.0 | 0.0 | 0.00 | 0.00 | 0.00 | 90 | 1010.1 |
| 20260508025336 | 39 | 219 | 0.0 | 0.0 | 0.00 | 0.00 | 0.00 | 89 | 1010.1 |
| 20260508024834 | 40 | 219 | 0.0 | 0.0 | 0.00 | 0.00 | 0.00 | 89 | 1010.0 |
| 20260508024350 | 40 | 219 | 0.0 | 0.0 | 0.00 | 0.00 | 0.00 | 89 | 1010.0 |
| 20260508023846 | 40 | 219 | 0.0 | 2.6 | 0.00 | 0.00 | 0.00 | 88 | 1010.0 |
| 20260508023338 | 41 | 219 | 0.0 | 2.6 | 0.00 | 0.00 | 0.00 | 88 | 1010.0 |
| 20260508022842 | 41 | 300 | 0.0 | 4.3 | 0.00 | 0.00 | 0.00 | 88 | 1010.0 |
| 20260508022341 | 41 | 299 | 1.7 | 5.2 | 0.00 | 0.00 | 0.00 | 88 | 1010.0 |
| 20260508021837 | 41 | 165 | 0.0 | 3.5 | 0.00 | 0.00 | 0.00 | 87 | 1010.1 |
| 20260508021334 | 42 | 165 | 1.7 | 3.5 | 0.00 | 0.00 | 0.00 | 87 | 1010.1 |
| 20260508020840 | 42 | 274 | 1.7 | 3.5 | 0.00 | 0.00 | 0.00 | 86 | 1010.0 |
| 20260508020333 | 42 | 137 | 0.0 | 2.6 | 0.00 | 0.00 | 0.00 | 86 | 1010.0 |
| 20260508015844 | 42 | 159 | 0.0 | 1.7 | 0.00 | 0.00 | 0.00 | 85 | 1009.9 |
| 20260508015342 | 42 | 57 | 0.0 | 2.6 | 0.00 | 0.00 | 0.00 | 84 | 1009.9 |
| 20260508014836 | 42 | 57 | 0.9 | 4.3 | 0.00 | 0.00 | 0.00 | 84 | 1009.8 |
| 20260508014353 | 42 | 252 | 1.7 | 4.3 | 0.00 | 0.00 | 0.00 | 84 | 1009.9 |
| 20260508013906 | 42 | 36 | 0.9 | 2.6 | 0.00 | 0.00 | 0.00 | 84 | 1009.9 |
| 20260508013346 | 42 | 219 | 0.9 | 1.7 | 0.00 | 0.00 | 0.00 | 83 | 1009.8 |
| 20260508012834 | 42 | 219 | 0.9 | 2.6 | 0.00 | 0.00 | 0.00 | 82 | 1009.8 |
| 20260508012337 | 42 | 219 | 1.7 | 2.6 | 0.00 | 0.00 | 0.00 | 81 | 1009.8 |
| 20260508011838 | 42 | 219 | 1.7 | 2.6 | 0.00 | 0.00 | 0.00 | 81 | 1009.6 |
| 20260508011351 | 41 | 219 | 0.9 | 2.6 | 0.00 | 0.00 | 0.00 | 80 | 1009.4 |
| 20260508010856 | 41 | 219 | 0.0 | 1.7 | 0.00 | 0.00 | 0.00 | 79 | 1009.4 |
| 20260508010351 | 41 | 219 | 0.0 | 2.6 | 0.00 | 0.00 | 0.00 | 79 | 1009.4 |
| 20260508005906 | 41 | 355 | 0.0 | 3.5 | 0.00 | 0.00 | 0.00 | 77 | 1009.3 |
| 20260508005349 | 42 | 256 | 1.7 | 3.5 | 0.00 | 0.00 | 0.00 | 77 | 1009.2 |
| 20260508004848 | 42 | 215 | 0.9 | 2.6 | 0.00 | 0.00 | 0.00 | 75 | 1009.2 |
| 20260508004345 | 42 | 215 | 1.7 | 2.6 | 0.00 | 0.00 | 0.00 | 74 | 1009.3 |
| 20260508003842 | 42 | 293 | 0.0 | 4.3 | 0.00 | 0.00 | 0.00 | 74 | 1009.1 |
| 20260508003338 | 42 | 244 | 0.9 | 7.0 | 0.00 | 0.00 | 0.00 | 72 | 1008.9 |
| 20260508002853 | 42 | 298 | 2.6 | 7.0 | 0.00 | 0.00 | 0.00 | 71 | 1008.9 |
| 20260508002416 | 42 | 211 | 0.9 | 3.5 | 0.00 | 0.00 | 0.00 | 69 | 1008.8 |
| 20260508001855 | 42 | 205 | 0.9 | 3.5 | 0.00 | 0.00 | 0.00 | 68 | 1008.7 |
| 20260508001351 | 43 | 254 | 0.9 | 3.5 | 0.00 | 0.00 | 0.00 | 67 | 1008.7 |
| 20260508000853 | 43 | 244 | 1.7 | 3.5 | 0.00 | 0.00 | 0.00 | 66 | 1008.8 |
| 20260508000336 | 43 | 288 | 1.7 | 3.5 | 0.00 | 0.00 | 0.00 | 65 | 1008.8 |
| 20260507235909 | 43 | 151 | 0.9 | 4.3 | 0.00 | 0.00 | 0.00 | 65 | 1008.7 |
| 20260507235353 | 44 | 137 | 1.7 | 7.8 | 0.00 | 0.00 | 0.00 | 66 | 1008.7 |
| 20260507234847 | 44 | 34 | 2.6 | 7.8 | 0.00 | 0.00 | 0.00 | 65 | 1008.7 |
| 20260507234400 | 44 | 133 | 2.6 | 3.5 | 0.00 | 0.00 | 0.00 | 64 | 1008.7 |
| 20260507233841 | 45 | 202 | 1.7 | 3.5 | 0.00 | 0.00 | 0.00 | 64 | 1008.7 |
| 20260507233339 | 45 | 201 | 1.7 | 3.5 | 0.00 | 0.00 | 0.00 | 65 | 1008.8 |
| 20260507232852 | 45 | 283 | 1.7 | 3.5 | 0.00 | 0.00 | 0.00 | 62 | 1008.8 |
| 20260507232344 | 46 | 261 | 0.9 | 3.5 | 0.00 | 0.00 | 0.00 | 61 | 1008.8 |
| 20260507231843 | 46 | 225 | 0.9 | 3.5 | 0.00 | 0.00 | 0.00 | 63 | 1008.8 |
| 20260507231336 | 47 | 283 | 0.9 | 7.0 | 0.00 | 0.00 | 0.00 | 60 | 1008.7 |
| 20260507230834 | 47 | 242 | 1.7 | 7.0 | 0.00 | 0.00 | 0.00 | 59 | 1008.6 |
| 20260507230353 | 47 | 266 | 1.7 | 6.1 | 0.00 | 0.00 | 0.00 | 59 | 1008.7 |
| 20260507225354 | 48 | 229 | 1.7 | 3.5 | 0.00 | 0.00 | 0.00 | 60 | 1008.6 |
| 20260507224843 | 48 | 88 | 0.9 | 3.5 | 0.00 | 0.00 | 0.00 | 58 | 1008.6 |
| 20260507224343 | 48 | 242 | 1.7 | 4.3 | 0.00 | 0.00 | 0.00 | 61 | 1008.6 |
| 20260507223840 | 48 | 201 | 2.6 | 7.0 | 0.00 | 0.00 | 0.00 | 59 | 1008.5 |
| 20260507223337 | 49 | 135 | 1.7 | 7.0 | 0.00 | 0.00 | 0.00 | 55 | 1008.5 |
| 20260507222838 | 49 | 182 | 1.7 | 5.2 | 0.00 | 0.00 | 0.00 | 56 | 1008.5 |
| 20260507222355 | 49 | 232 | 0.9 | 5.2 | 0.00 | 0.00 | 0.00 | 57 | 1008.5 |
| 20260507221850 | 49 | 126 | 0.9 | 3.5 | 0.00 | 0.00 | 0.00 | 56 | 1008.5 |
| 20260507221348 | 49 | 50 | 1.7 | 7.0 | 0.00 | 0.00 | 0.00 | 56 | 1008.5 |
| 20260507220908 | 49 | 360 | 2.6 | 7.0 | 0.00 | 0.00 | 0.00 | 54 | 1008.5 |
| 20260507220345 | 49 | 28 | 1.7 | 7.0 | 0.00 | 0.00 | 0.00 | 56 | 1008.5 |
| 20260507215839 | 50 | 13 | 1.7 | 4.3 | 0.00 | 0.00 | 0.00 | 55 | 1008.5 |
| 20260507215353 | 50 | 325 | 0.9 | 7.8 | 0.00 | 0.00 | 0.00 | 56 | 1008.5 |
| 20260507214849 | 50 | 9 | 1.7 | 7.8 | 0.00 | 0.00 | 0.00 | 56 | 1008.4 |
| 20260507214343 | 50 | 207 | 1.7 | 7.0 | 0.00 | 0.00 | 0.00 | 53 | 1008.3 |
| 20260507213836 | 51 | 317 | 1.7 | 7.0 | 0.00 | 0.00 | 0.00 | 57 | 1008.3 |
| 20260507213335 | 51 | 140 | 1.7 | 6.1 | 0.00 | 0.00 | 0.00 | 53 | 1008.3 |
| 20260507212840 | 52 | 9 | 2.6 | 4.3 | 0.00 | 0.00 | 0.00 | 52 | 1008.3 |
| 20260507212359 | 52 | 48 | 1.7 | 7.0 | 0.00 | 0.00 | 0.00 | 50 | 1008.4 |
| 20260507211856 | 52 | 239 | 1.7 | 8.7 | 0.00 | 0.00 | 0.00 | 50 | 1008.4 |
| 20260507211341 | 52 | 221 | 3.5 | 8.7 | 0.00 | 0.00 | 0.00 | 53 | 1008.4 |
| 20260507210847 | 52 | 204 | 1.7 | 7.0 | 0.00 | 0.00 | 0.00 | 48 | 1008.4 |
| 20260507210349 | 51 | 290 | 2.6 | 7.0 | 0.00 | 0.00 | 0.00 | 51 | 1008.4 |
| 20260507205849 | 51 | 333 | 1.7 | 8.7 | 0.00 | 0.00 | 0.00 | 52 | 1008.5 |
| 20260507205345 | 50 | 263 | 3.5 | 8.7 | 0.00 | 0.00 | 0.00 | 48 | 1008.4 |
| 20260507204907 | 51 | 5 | 1.7 | 7.0 | 0.00 | 0.00 | 0.00 | 49 | 1008.4 |
| 20260507204342 | 53 | 63 | 2.6 | 5.2 | 0.00 | 0.00 | 0.00 | 45 | 1008.5 |
| 20260507203852 | 52 | 194 | 2.6 | 7.8 | 0.00 | 0.00 | 0.00 | 47 | 1008.4 |
| 20260507203353 | 53 | 236 | 1.7 | 7.8 | 0.00 | 0.00 | 0.00 | 50 | 1008.5 |
| 20260507202839 | 52 | 34 | 2.6 | 7.0 | 0.00 | 0.00 | 0.00 | 46 | 1008.5 |
| 20260507202351 | 53 | 238 | 2.6 | 7.8 | 0.00 | 0.00 | 0.00 | 47 | 1008.5 |
| 20260507201843 | 53 | 290 | 2.6 | 7.8 | 0.00 | 0.00 | 0.00 | 46 | 1008.4 |
| 20260507201354 | 53 | 282 | 2.6 | 7.0 | 0.00 | 0.00 | 0.00 | 44 | 1008.4 |
| 20260507200848 | 53 | 242 | 3.5 | 10.4 | 0.00 | 0.00 | 0.00 | 44 | 1008.5 |
| 20260507200349 | 53 | 256 | 4.3 | 10.4 | 0.00 | 0.00 | 0.00 | 47 | 1008.4 |
| 20260507195844 | 54 | 180 | 2.6 | 9.6 | 0.00 | 0.00 | 0.00 | 43 | 1008.4 |
| 20260507195411 | 54 | 307 | 3.5 | 13.0 | 0.00 | 0.00 | 0.00 | 47 | 1008.4 |
| 20260507194842 | 54 | 9 | 4.3 | 13.0 | 0.00 | 0.00 | 0.00 | 47 | 1008.4 |
| 20260507194346 | 54 | 257 | 2.6 | 7.8 | 0.00 | 0.00 | 0.00 | 44 | 1008.4 |
| 20260507193842 | 53 | 227 | 2.6 | 6.1 | 0.00 | 0.00 | 0.00 | 48 | 1008.4 |
| 20260507193405 | 53 | 210 | 3.5 | 7.8 | 0.00 | 0.00 | 0.00 | 47 | 1008.5 |
| 20260507192839 | 54 | 265 | 4.3 | 7.8 | 0.00 | 0.00 | 0.00 | 44 | 1008.5 |
| 20260507192354 | 54 | 242 | 2.6 | 7.0 | 0.00 | 0.00 | 0.00 | 44 | 1008.6 |
| 20260507191840 | 54 | 321 | 2.6 | 7.8 | 0.00 | 0.00 | 0.00 | 48 | 1008.7 |
| 20260507191348 | 54 | 317 | 2.6 | 7.8 | 0.00 | 0.00 | 0.00 | 47 | 1008.6 |
| 20260507190844 | 54 | 250 | 1.7 | 7.0 | 0.00 | 0.00 | 0.00 | 48 | 1008.7 |
| 20260507190337 | 53 | 219 | 3.5 | 10.4 | 0.00 | 0.00 | 0.00 | 51 | 1008.7 |
| 20260507185845 | 53 | 253 | 2.6 | 10.4 | 0.00 | 0.00 | 0.00 | 50 | 1008.9 |
| 20260507185346 | 53 | 190 | 2.6 | 7.8 | 0.00 | 0.00 | 0.00 | 50 | 1008.8 |
| 20260507184920 | 53 | 286 | 1.7 | 7.8 | 0.00 | 0.00 | 0.00 | 48 | 1008.9 |
| 20260507184414 | 53 | 266 | 2.6 | 7.8 | 0.00 | 0.00 | 0.00 | 48 | 1008.7 |
| 20260507183914 | 54 | 121 | 2.6 | 9.6 | 0.00 | 0.00 | 0.00 | 54 | 1008.9 |
| 20260507183347 | 54 | 264 | 2.6 | 9.6 | 0.00 | 0.00 | 0.00 | 51 | 1008.8 |
| 20260507182845 | 54 | 236 | 3.5 | 7.8 | 0.00 | 0.00 | 0.00 | 52 | 1008.9 |
| 20260507182343 | 53 | 315 | 2.6 | 7.8 | 0.00 | 0.00 | 0.00 | 51 | 1008.9 |
| 20260507181833 | 53 | 205 | 2.6 | 12.2 | 0.00 | 0.00 | 0.00 | 50 | 1009.0 |
| 20260507181351 | 53 | 192 | 6.1 | 12.2 | 0.00 | 0.00 | 0.00 | 50 | 1009.0 |
| 20260507180900 | 53 | 162 | 4.3 | 8.7 | 0.00 | 0.00 | 0.00 | 57 | 1009.0 |
| 20260507180410 | 53 | 138 | 3.5 | 7.8 | 0.00 | 0.00 | 0.00 | 51 | 1009.1 |
| 20260507175852 | 52 | 252 | 4.3 | 7.8 | 0.00 | 0.00 | 0.00 | 59 | 1009.1 |
| 20260507175356 | 52 | 204 | 2.6 | 5.2 | 0.00 | 0.00 | 0.00 | 58 | 1009.2 |
| 20260507174908 | 52 | 202 | 1.7 | 7.0 | 0.00 | 0.00 | 0.00 | 55 | 1009.2 |
| 20260507174335 | 52 | 267 | 2.6 | 5.2 | 0.00 | 0.00 | 0.00 | 58 | 1009.2 |
| 20260507173838 | 52 | 270 | 2.6 | 8.7 | 0.00 | 0.00 | 0.00 | 56 | 1009.3 |
| 20260507173351 | 53 | 337 | 3.5 | 8.7 | 0.00 | 0.00 | 0.00 | 60 | 1009.2 |
| 20260507172851 | 52 | 123 | 2.6 | 9.6 | 0.00 | 0.00 | 0.00 | 59 | 1009.1 |
| 20260507172405 | 51 | 205 | 4.3 | 9.6 | 0.00 | 0.00 | 0.00 | 55 | 1009.1 |
| 20260507171843 | 51 | 99 | 2.6 | 6.1 | 0.00 | 0.00 | 0.00 | 65 | 1009.3 |
| 20260507171412 | 52 | 237 | 2.6 | 9.6 | 0.00 | 0.00 | 0.00 | 58 | 1009.2 |
| 20260507170852 | 52 | 40 | 4.3 | 11.3 | 0.00 | 0.00 | 0.00 | 62 | 1009.4 |
| 20260507170342 | 51 | 251 | 6.1 | 12.2 | 0.00 | 0.00 | 0.00 | 63 | 1009.4 |
| 20260507165845 | 50 | 251 | 6.1 | 12.2 | 0.00 | 0.00 | 0.00 | 62 | 1009.4 |
| 20260507165349 | 51 | 182 | 2.6 | 7.8 | 0.00 | 0.00 | 0.00 | 66 | 1009.5 |
| 20260507164846 | 51 | 284 | 2.6 | 6.1 | 0.00 | 0.00 | 0.00 | 65 | 1009.6 |
| 20260507164339 | 51 | 302 | 1.7 | 5.2 | 0.00 | 0.00 | 0.00 | 62 | 1009.6 |
| 20260507163859 | 52 | 31 | 2.6 | 5.2 | 0.00 | 0.00 | 0.00 | 65 | 1009.6 |
| 20260507163336 | 51 | 339 | 2.6 | 8.7 | 0.00 | 0.00 | 0.00 | 63 | 1009.7 |
| 20260507162846 | 50 | 348 | 3.5 | 8.7 | 0.00 | 0.00 | 0.00 | 67 | 1009.7 |
| 20260507162340 | 50 | 55 | 1.7 | 5.2 | 0.00 | 0.00 | 0.00 | 63 | 1009.8 |
| 20260507161900 | 51 | 36 | 2.6 | 5.2 | 0.00 | 0.00 | 0.00 | 65 | 1009.8 |
| 20260507161344 | 50 | 205 | 2.6 | 7.8 | 0.00 | 0.00 | 0.00 | 63 | 1009.8 |
| 20260507160846 | 51 | 340 | 1.7 | 12.2 | 0.00 | 0.00 | 0.00 | 62 | 1009.8 |
| 20260507160344 | 52 | 312 | 4.3 | 12.2 | 0.00 | 0.00 | 0.00 | 57 | 1009.9 |
| 20260507155855 | 52 | 210 | 2.6 | 11.3 | 0.00 | 0.00 | 0.00 | 59 | 1009.9 |
| 20260507155335 | 52 | 267 | 3.5 | 10.4 | 0.00 | 0.00 | 0.00 | 64 | 1009.9 |
| 20260507154838 | 50 | 205 | 2.6 | 7.0 | 0.00 | 0.00 | 0.00 | 65 | 1009.9 |
| 20260507154418 | 50 | 215 | 2.6 | 7.0 | 0.00 | 0.00 | 0.00 | 65 | 1010.0 |
| 20260507153909 | 49 | 53 | 2.6 | 6.1 | 0.00 | 0.00 | 0.00 | 66 | 1010.0 |
| 20260507153349 | 49 | 33 | 1.7 | 8.7 | 0.00 | 0.00 | 0.00 | 67 | 1010.0 |
| 20260507152844 | 50 | 96 | 1.7 | 8.7 | 0.00 | 0.00 | 0.00 | 66 | 1010.1 |
| 20260507152342 | 50 | 38 | 1.7 | 9.6 | 0.00 | 0.00 | 0.00 | 69 | 1010.1 |
| 20260507151901 | 50 | 222 | 6.1 | 9.6 | 0.00 | 0.00 | 0.00 | 68 | 1010.1 |
| 20260507151409 | 50 | 240 | 2.6 | 9.6 | 0.00 | 0.00 | 0.00 | 73 | 1010.2 |
| 20260507150847 | 48 | 104 | 1.7 | 6.1 | 0.00 | 0.00 | 0.00 | 70 | 1010.2 |
| 20260507150338 | 49 | 278 | 1.7 | 8.7 | 0.00 | 0.00 | 0.00 | 69 | 1010.2 |
| 20260507145839 | 48 | 41 | 2.6 | 8.7 | 0.00 | 0.00 | 0.00 | 71 | 1010.2 |
| 20260507145342 | 48 | 245 | 2.6 | 4.3 | 0.00 | 0.00 | 0.00 | 72 | 1010.3 |
| 20260507144844 | 49 | 351 | 1.7 | 4.3 | 0.00 | 0.00 | 0.00 | 69 | 1010.2 |
| 20260507144342 | 49 | 24 | 1.7 | 4.3 | 0.00 | 0.00 | 0.00 | 72 | 1010.1 |
| 20260507143844 | 48 | 302 | 1.7 | 3.5 | 0.00 | 0.00 | 0.00 | 76 | 1010.2 |
| 20260507143345 | 46 | 277 | 1.7 | 4.3 | 0.00 | 0.00 | 0.00 | 73 | 1010.3 |
| 20260507142858 | 47 | 295 | 1.7 | 6.1 | 0.00 | 0.00 | 0.00 | 72 | 1010.3 |
| 20260507142410 | 47 | 67 | 1.7 | 6.1 | 0.00 | 0.00 | 0.00 | 75 | 1010.3 |
| 20260507141852 | 47 | 49 | 1.7 | 7.0 | 0.00 | 0.00 | 0.00 | 73 | 1010.3 |
| 20260507141352 | 46 | 237 | 2.6 | 7.0 | 0.00 | 0.00 | 0.00 | 72 | 1010.3 |
| 20260507140846 | 47 | 240 | 2.6 | 5.2 | 0.00 | 0.00 | 0.00 | 75 | 1010.3 |
| 20260507140350 | 46 | 227 | 1.7 | 10.4 | 0.00 | 0.00 | 0.00 | 73 | 1010.4 |
| 20260507135843 | 46 | 217 | 2.6 | 10.4 | 0.00 | 0.01 | 0.00 | 77 | 1010.5 |
| 20260507135345 | 46 | 214 | 3.5 | 7.0 | 0.00 | 0.01 | 0.00 | 76 | 1010.5 |
| 20260507134908 | 46 | 259 | 2.6 | 7.0 | 0.00 | 0.01 | 0.00 | 78 | 1010.6 |
| 20260507134353 | 45 | 284 | 1.7 | 7.0 | 0.00 | 0.01 | 0.00 | 77 | 1010.7 |
| 20260507133852 | 45 | 223 | 2.6 | 7.8 | 0.00 | 0.01 | 0.00 | 76 | 1010.5 |
| 20260507133347 | 45 | 280 | 4.3 | 7.8 | 0.00 | 0.01 | 0.00 | 75 | 1010.6 |
| 20260507132834 | 45 | 221 | 1.7 | 4.3 | 0.00 | 0.01 | 0.00 | 77 | 1010.4 |
| 20260507132350 | 45 | 138 | 0.9 | 5.2 | 0.00 | 0.01 | 0.00 | 77 | 1010.5 |
| 20260507131852 | 44 | 263 | 1.7 | 5.2 | 0.00 | 0.01 | 0.00 | 77 | 1010.4 |
| 20260507131345 | 45 | 200 | 1.7 | 6.1 | 0.00 | 0.01 | 0.00 | 77 | 1010.5 |
| 20260507130844 | 45 | 234 | 2.6 | 6.1 | 0.00 | 0.01 | 0.00 | 80 | 1010.5 |
| 20260507130338 | 44 | 252 | 0.0 | 6.1 | 0.00 | 0.01 | 0.00 | 82 | 1010.5 |
| 20260507125846 | 43 | 234 | 1.7 | 6.1 | 0.00 | 0.03 | 0.00 | 82 | 1010.5 |
| 20260507125339 | 43 | 246 | 2.6 | 4.3 | 0.00 | 0.03 | 0.00 | 85 | 1010.5 |
| 20260507124839 | 43 | 223 | 1.7 | 4.3 | 0.00 | 0.03 | 0.00 | 84 | 1010.6 |
| 20260507124341 | 43 | 355 | 1.7 | 4.3 | 0.00 | 0.03 | 0.00 | 83 | 1010.7 |
| 20260507123840 | 43 | 160 | 0.9 | 3.5 | 0.00 | 0.03 | 0.00 | 84 | 1010.6 |
| 20260507123350 | 43 | 306 | 0.9 | 5.2 | 0.00 | 0.03 | 0.00 | 85 | 1010.7 |
| 20260507122848 | 43 | 268 | 1.7 | 5.2 | 0.00 | 0.03 | 0.00 | 84 | 1010.6 |
| 20260507122336 | 42 | 26 | 0.9 | 5.2 | 0.00 | 0.03 | 0.00 | 83 | 1010.6 |
| 20260507121855 | 43 | 5 | 0.9 | 2.6 | 0.00 | 0.03 | 0.00 | 83 | 1010.6 |
| 20260507121339 | 43 | 121 | 0.0 | 2.6 | 0.00 | 0.03 | 0.00 | 83 | 1010.6 |
| 20260507120852 | 42 | 320 | 0.9 | 2.6 | 0.00 | 0.03 | 0.00 | 85 | 1010.9 |
| 20260507120338 | 42 | 216 | 0.9 | 2.6 | 0.00 | 0.03 | 0.00 | 84 | 1010.9 |
| 20260507115852 | 42 | 280 | 0.0 | 2.6 | 0.00 | 0.08 | 0.00 | 88 | 1010.9 |
| 20260507115350 | 40 | 208 | 0.0 | 0.9 | 0.00 | 0.08 | 0.00 | 92 | 1010.8 |
| 20260507114846 | 39 | 208 | 0.9 | 1.7 | 0.00 | 0.08 | 0.00 | 93 | 1010.8 |
| 20260507114336 | 38 | 208 | 0.0 | 1.7 | 0.00 | 0.08 | 0.00 | 93 | 1010.8 |
| 20260507113840 | 38 | 208 | 0.0 | 0.9 | 0.00 | 0.08 | 0.00 | 93 | 1010.9 |
| 20260507113400 | 38 | 208 | 0.0 | 0.9 | 0.00 | 0.08 | 0.00 | 93 | 1010.7 |
| 20260507112844 | 38 | 208 | 0.0 | 0.9 | 0.00 | 0.08 | 0.00 | 93 | 1010.6 |
| 20260507112357 | 38 | 208 | 0.0 | 0.9 | 0.00 | 0.08 | 0.00 | 93 | 1010.5 |